LUSAT (LO-19)

Last updated on Wed Sep 17 2025 00:03:09 GMT+0000 (Coordinated Universal Time)

1 20442U 90005G 25259.53840168 .00000114 00000+0 57586-4 0 9994 2 20442 98.9010 268.6039 0010563 290.5960 69.4090 14.33989988863176
UTC large
Height (km)
Speed (km/s)
/
Latitude / Longitude
Inclination (degrees)
Orbital Period (minutes)
Azimuth
Elevation
Range (km)
Doppler Factor

Next 0 passes for location: London (51.5072 / 0.1276)

Sorry there are no passes over London.